This is the latest recevied weather packets stored in our database for station/object W5ITZ. If no packets are shown the sender has not sent any weather packets the latest 10 day(s).
| Time | Temp. | Humidity | Pressure | Rain* | Wind** | Luminosity | Snow |
|---|---|---|---|---|---|---|---|
| 1778113976 | 27.22° C | 87% | 1009.1 hPa | 0 mm | - | 19 W/m² | - |
| 1778113672 | 27.22° C | 86% | 1008.9 hPa | 0 mm | - | 23 W/m² | - |
| 1778113368 | 27.22° C | 86% | 1008.9 hPa | 0 mm | - | 26 W/m² | - |
| 1778113065 | 27.22° C | 85% | 1008.7 hPa | 0 mm | - | 30 W/m² | - |
| 1778112763 | 27.78° C | 85% | 1008.9 hPa | 0 mm | - | 42 W/m² | - |
| 1778112459 | 27.78° C | 85% | 1008.6 hPa | 0 mm | - | 56 W/m² | - |
| 1778112155 | 27.78° C | 84% | 1008.9 hPa | 0 mm | - | 60 W/m² | - |
| 1778111851 | 27.78° C | 84% | 1008.7 hPa | 0 mm | - | 65 W/m² | - |
| 1778111547 | 27.78° C | 84% | 1008.5 hPa | 0 mm | - | 98 W/m² | - |
| 1778111244 | 27.78° C | 84% | 1008.4 hPa | 0 mm | - | 103 W/m² | - |
| 1778110941 | 27.78° C | 84% | 1008.4 hPa | 0 mm | - | 114 W/m² | - |
| 1778110639 | 27.78° C | 84% | 1008.3 hPa | 0 mm | - | 125 W/m² | - |
| 1778110335 | 27.78° C | 84% | 1008.3 hPa | 0 mm | - | 122 W/m² | - |
| 1778110032 | 27.78° C | 84% | 1008.3 hPa | 0 mm | - | 128 W/m² | - |
| 1778109727 | 28.33° C | 83% | 1008.1 hPa | 0 mm | - | 148 W/m² | - |
| 1778109424 | 28.33° C | 83% | 1008.3 hPa | 0 mm | - | 184 W/m² | - |
| 1778109123 | 27.78° C | 83% | 1008.2 hPa | 0 mm | - | 332 W/m² | - |
| 1778108819 | 27.78° C | 83% | 1008.6 hPa | 0 mm | - | 239 W/m² | - |
| 1778108516 | 27.78° C | 84% | 1008.2 hPa | 0 mm | - | 187 W/m² | - |
| 1778108212 | 27.78° C | 84% | 1008.5 hPa | 0 mm | - | 221 W/m² | - |
| 1778107909 | 27.78° C | 85% | 1008.4 hPa | 0 mm | - | 190 W/m² | - |
| 1778107606 | 27.78° C | 84% | 1008.4 hPa | 0 mm | - | 163 W/m² | - |
| 1778107302 | 27.78° C | 84% | 1008.1 hPa | 0 mm | - | 164 W/m² | - |
| 1778106999 | 27.78° C | 84% | 1007.9 hPa | 0 mm | - | 202 W/m² | - |
| 1778106695 | 27.78° C | 84% | 1008.2 hPa | 0 mm | - | 313 W/m² | - |
* Rain latest hour (hover to see other rain measurements)
** Current wind speed in m/s (hover to see current wind gust speed)